QPF
0.00 0.00 0.00 0.00 0.00 0.00 0.00 0.00 0.00 0.00 0.00 0.00 0.01 0.01 0.01 0.02 0.00 0.00 0.00 0.00 0.00 0.00 0.00 0.00 0.00 0.00 0.00 0.00 0.00 0.00 0.00 0.00 0.00 0.00 0.00 0.00 0.00 0.00 0.00 0.00 0.00 0.00 0.00
0.00 0.00 0.00 0.00 0.00 0.00 0.00 0.00 0.00 0.00 0.00 0.00 0.00 0.00 0.00 0.00 0.01 0.02 0.00 0.00 0.02 0.03 0.02 0.00 0.00 0.01 0.01 0.01 0.00 0.00 0.00 0.00 0.00 0.00 0.00 0.00 0.00 0.00 0.00 0.00 0.00 0.00 0.00
0.00 0.00 0.00 0.00 0.00 0.00 0.00 0.00 0.00 0.00 0.00 0.00 0.00 0.00 0.00 0.00 0.00 0.00 0.00 0.02 0.04 0.03 0.04 0.05 0.01 0.02 0.01 0.05 0.01 0.08 0.04 0.01 0.00 0.00 0.00 0.00 0.00 0.00 0.00 0.00 0.00 0.00 0.00
0.00 0.00 0.00 0.00 0.00 0.00 0.00 0.00 0.00 0.00 0.00 0.00 0.00 0.00 0.00 0.00 0.00 0.00 0.00 0.00 0.01 0.05 0.07 0.06 0.03 0.01 0.01 0.04 0.11 0.06 0.10 0.07 0.03 0.02 0.00 0.00 0.00 0.00 0.00 0.00 0.00 0.00 0.00
0.00 0.00 0.00 0.00 0.00 0.00 0.00 0.00 0.00 0.00 0.00 0.00 0.00 0.00 0.00 0.00 0.00 0.00 0.00 0.00 0.00 0.00 0.01 0.06 0.04 0.03 0.01 0.02 0.06 0.10 0.06 0.08 0.06 0.04 0.05 0.03 0.01 0.01 0.00 0.00 0.00 0.00 0.00
0.00 0.00 0.00 0.00 0.00 0.00 0.00 0.00 0.00 0.00 0.00 0.00 0.00 0.00 0.00 0.00 0.00 0.00 0.00 0.00 0.00 0.00 0.01 0.01 0.02 0.02 0.02 0.03 0.03 0.08 0.08 0.04 0.04 0.03 0.05 0.07 0.06 0.04 0.03 0.03 0.01 0.01 0.00
0.00 0.00 0.00 0.00 0.00 0.00 0.00 0.00 0.00 0.00 0.00 0.00 0.00 0.00 0.00 0.00 0.00 0.00 0.00 0.00 0.00 0.00 0.02 0.01 0.00 0.00 0.00 0.00 0.00 0.01 0.01 0.02 0.04 0.05 0.06 0.07 0.07 0.06 0.06 0.05 0.03 0.01 0.00
0.00 0.00 0.00 0.00 0.00 0.00 0.00 0.00 0.00 0.00 0.00 0.00 0.00 0.00 0.00 0.00 0.00 0.00 0.00 0.00 0.00 0.00 0.00 0.00 0.00 0.00 0.00 0.00 0.01 0.01 0.02 0.02 0.04 0.05 0.05 0.04 0.04 0.07 0.06 0.05 0.03 0.03 0.01
0.00 0.00 0.00 0.00 0.00 0.00 0.00 0.00 0.00 0.00 0.00 0.00 0.00 0.00 0.00 0.00 0.00 0.00 0.00 0.00 0.00 0.00 0.00 0.00 0.00 0.00 0.00 0.00 0.01 0.02 0.03 0.03 0.03 0.04 0.04 0.02 0.03 0.04 0.04 0.02 0.02 0.04 0.03
0.00 0.00 0.00 0.00 0.00 0.00 0.00 0.00 0.00 0.00 0.00 0.00 0.00 0.00 0.00 0.00 0.00 0.00 0.00 0.00 0.00 0.00 0.00 0.00 0.00 0.00 0.00 0.00 0.00 0.00 0.00 0.00 0.02 0.03 0.03 0.03 0.02 0.02 0.02 0.02 0.02 0.02 0.01
0.00 0.00 0.00 0.00 0.00 0.00 0.00 0.00 0.00 0.00 0.00 0.00 0.00 0.00 0.00 0.00 0.00 0.00 0.00 0.00 0.00 0.00 0.00 0.00 0.00 0.00 0.00 0.00 0.00 0.00 0.00 0.00 0.00 0.00 0.01 0.01 0.01 0.02 0.02 0.02 0.01 0.01 0.00
0.00 0.00 0.00 0.00 0.00 0.00 0.00 0.00 0.00 0.00 0.00 0.00 0.00 0.00 0.00 0.00 0.00 0.00 0.00 0.00 0.00 0.00 0.00 0.00 0.00 0.00 0.00 0.00 0.00 0.00 0.00 0.00 0.00 0.00 0.00 0.00 0.01 0.01 0.01 0.01 0.01 0.00 0.00
0.00 0.00 0.00 0.00 0.00 0.00 0.00 0.00 0.00 0.00 0.00 0.00 0.00 0.00 0.00 0.00 0.00 0.00 0.00 0.00 0.00 0.00 0.00 0.00 0.00 0.00 0.00 0.00 0.00 0.00 0.00 0.00 0.00 0.00 0.00 0.00 0.00 0.00 0.00 0.00 0.00 0.00 0.00
0.00 0.00 0.00 0.00 0.00 0.00 0.00 0.00 0.00 0.00 0.00 0.00 0.00 0.00 0.00 0.00 0.00 0.00 0.00 0.00 0.00 0.00 0.00 0.00 0.00 0.00 0.00 0.00 0.00 0.00 0.00 0.00 0.00 0.00 0.00 0.00 0.00 0.01 0.00 0.00 0.00 0.00 0.00
0.00 0.00 0.00 0.00 0.00 0.00 0.00 0.00 0.00 0.00 0.00 0.00 0.00 0.00 0.00 0.00 0.00 0.00 0.00 0.00 0.00 0.00 0.00 0.00 0.00 0.00 0.00 0.00 0.00 0.00 0.00 0.00 0.00 0.00 0.00 0.00 0.01 0.00 0.00 0.00 0.00 0.00 0.00
0.00 0.00 0.00 0.00 0.00 0.00 0.00 0.00 0.00 0.00 0.00 0.00 0.00 0.00 0.00 0.00 0.00 0.00 0.00 0.00 0.00 0.00 0.00 0.00 0.00 0.00 0.00 0.00 0.00 0.00 0.00 0.00 0.00 0.00 0.00 0.00 0.00 0.00 0.00 0.00 0.00 0.00 0.00
0.00 0.00 0.00 0.00 0.00 0.00 0.00 0.00 0.00 0.00 0.00 0.00 0.00 0.00 0.00 0.00 0.00 0.00 0.00 0.00 0.00 0.00 0.00 0.00 0.00 0.00 0.00 0.00 0.00 0.00 0.00 0.00 0.00 0.00 0.00 0.00 0.00 0.00 0.00 0.00 0.00 0.00 0.00
0.00 0.00 0.00 0.00 0.00 0.00 0.00 0.00 0.00 0.00 0.00 0.00 0.00 0.00 0.00 0.00 0.00 0.00 0.00 0.00 0.00 0.00 0.00 0.00 0.00 0.00 0.00 0.00 0.00 0.00 0.00 0.00 0.00 0.00 0.00 0.00 0.00 0.00 0.00 0.00 0.00 0.00 0.00
0.00 0.00 0.00 0.00 0.00 0.00 0.00 0.00 0.00 0.00 0.00 0.00 0.00 0.00 0.00 0.00 0.00 0.00 0.00 0.00 0.00 0.00 0.00 0.00 0.00 0.00 0.00 0.00 0.00 0.00 0.00 0.00 0.00 0.00 0.00 0.00 0.00 0.00 0.00 0.00 0.00 0.00 0.00
0.00 0.00 0.00 0.00 0.00 0.00 0.00 0.00 0.00 0.00 0.00 0.00 0.00 0.00 0.00 0.00 0.00 0.00 0.00 0.00 0.00 0.00 0.00 0.00 0.00 0.00 0.00 0.00 0.00 0.00 0.00 0.00 0.00 0.00 0.00 0.00 0.00 0.00 0.00 0.00 0.00 0.00 0.00
0.00 0.00 0.00 0.00 0.00 0.00 0.00 0.00 0.00 0.00 0.00 0.00 0.00 0.00 0.00 0.00 0.00 0.00 0.00 0.00 0.00 0.00 0.00 0.00 0.00 0.00 0.00 0.00 0.00 0.00 0.00 0.00 0.00 0.00 0.00 0.00 0.00 0.00 0.00 0.00 0.00 0.00 0.00
0.00 0.00 0.00 0.00 0.00 0.00 0.00 0.00 0.00 0.00 0.00 0.00 0.00 0.00 0.00 0.00 0.00 0.00 0.00 0.00 0.00 0.00 0.00 0.00 0.00 0.00 0.00 0.00 0.00 0.00 0.00 0.00 0.00 0.00 0.00 0.00 0.00 0.00 0.00 0.00 0.00 0.00 0.00
0.00 0.00 0.00 0.00 0.00 0.00 0.00 0.00 0.00 0.00 0.00 0.00 0.00 0.00 0.00 0.00 0.00 0.00 0.00 0.00 0.00 0.00 0.00 0.00 0.00 0.00 0.00 0.00 0.00 0.00 0.00 0.00 0.00 0.00 0.00 0.00 0.00 0.00 0.00 0.00 0.00 0.00 0.00
0.00 0.00 0.00 0.00 0.00 0.00 0.00 0.00 0.00 0.00 0.00 0.00 0.00 0.00 0.00 0.00 0.00 0.00 0.00 0.00 0.00 0.00 0.00 0.00 0.00 0.00 0.00 0.00 0.00 0.00 0.00 0.00 0.00 0.00 0.00 0.00 0.00 0.00 0.00 0.00 0.00 0.00 0.00
0.00 0.00 0.00 0.00 0.00 0.00 0.00 0.00 0.00 0.00 0.00 0.00 0.00 0.00 0.00 0.00 0.00 0.00 0.00 0.00 0.00 0.00 0.00 0.00 0.00 0.00 0.00 0.00 0.00 0.00 0.00 0.00 0.00 0.00 0.00 0.00 0.00 0.00 0.00 0.00 0.00 0.00 0.00
0.00 0.00 0.00 0.00 0.00 0.00 0.00 0.00 0.00 0.00 0.00 0.00 0.00 0.00 0.00 0.00 0.00 0.00 0.00 0.00 0.00 0.00 0.00 0.00 0.00 0.00 0.00 0.00 0.00 0.00 0.00 0.00 0.00 0.00 0.00 0.00 0.00 0.00 0.00 0.00 0.00 0.00 0.00
MSLP
1009.09 1009.33 1009.54 1009.79 1010.13 1010.41 1010.68 1010.97 1011.21 1011.42 1012.02 1012.62 1013.34 1013.79 1013.98 1014.04 1014.01 1013.80 1013.84 1013.93 1014.27 1014.63 1015.15 1015.56 1015.88 1015.91 1016.31 1016.82 1017.25 1017.71 1018.24 1018.70 1019.01 1019.73 1020.22 1020.20 1020.17 1020.31 1020.28 1020.24 1020.28 1020.40 1020.65
1009.38 1009.46 1009.66 1009.89 1010.39 1010.69 1010.88 1011.10 1011.30 1011.35 1011.48 1011.81 1012.50 1013.02 1013.50 1013.68 1013.94 1014.03 1013.95 1013.97 1014.05 1014.13 1014.46 1014.96 1015.48 1015.88 1016.12 1016.27 1016.67 1017.12 1017.74 1018.29 1018.60 1019.52 1020.37 1020.63 1020.56 1020.26 1019.98 1020.07 1020.18 1020.24 1020.39
1010.25 1010.30 1010.40 1010.70 1010.98 1011.26 1011.44 1011.51 1011.39 1011.36 1011.43 1011.53 1011.89 1012.54 1012.96 1013.41 1013.72 1013.79 1013.87 1013.80 1013.99 1014.18 1014.22 1014.35 1014.86 1015.37 1015.65 1016.04 1016.30 1016.43 1016.87 1017.54 1018.21 1018.40 1019.25 1019.89 1019.79 1019.89 1019.70 1019.69 1019.89 1020.08 1020.24
1010.81 1011.00 1011.21 1011.55 1011.99 1012.12 1011.96 1011.91 1011.80 1011.77 1011.70 1011.62 1011.76 1012.30 1012.61 1012.88 1012.96 1013.10 1013.28 1013.44 1013.59 1013.90 1014.21 1014.45 1014.41 1014.77 1015.09 1015.21 1015.71 1016.02 1016.42 1016.99 1017.69 1018.40 1018.03 1018.38 1018.73 1019.22 1019.91 1019.63 1019.53 1019.57 1019.99
1011.27 1011.67 1011.99 1012.30 1012.54 1012.57 1012.48 1012.27 1012.04 1011.96 1011.87 1011.84 1011.94 1012.17 1012.32 1012.46 1012.18 1012.29 1012.63 1012.96 1013.24 1013.26 1013.45 1013.73 1014.32 1014.58 1014.69 1014.86 1015.02 1015.40 1015.76 1016.04 1016.70 1017.15 1017.59 1018.09 1018.48 1018.80 1019.24 1019.75 1019.60 1019.63 1019.42
1011.65 1012.05 1012.18 1012.42 1012.64 1012.65 1012.63 1012.51 1012.36 1012.27 1012.14 1012.13 1012.19 1012.39 1012.46 1012.46 1012.43 1012.37 1012.50 1012.63 1012.72 1012.83 1013.12 1013.40 1013.87 1014.30 1014.76 1014.77 1014.88 1015.02 1015.29 1015.75 1015.76 1016.17 1016.82 1016.97 1017.66 1018.43 1018.94 1019.46 1019.69 1019.92 1020.15
1011.72 1012.07 1012.36 1012.54 1012.79 1012.96 1012.92 1012.86 1012.83 1012.78 1012.57 1012.46 1012.38 1012.47 1012.58 1012.65 1012.67 1012.56 1012.47 1012.56 1012.73 1012.71 1012.92 1013.28 1013.40 1013.88 1014.24 1014.67 1014.77 1014.89 1015.05 1015.29 1015.46 1015.65 1016.23 1016.86 1017.23 1017.53 1018.10 1018.79 1019.69 1020.26 1020.93
1011.97 1012.36 1012.60 1012.77 1013.00 1013.20 1013.27 1013.35 1013.32 1013.29 1013.25 1013.13 1013.00 1012.73 1012.63 1012.76 1012.74 1012.63 1012.55 1012.57 1012.66 1012.70 1012.63 1012.89 1013.12 1013.49 1013.82 1014.22 1014.40 1014.55 1014.71 1014.88 1015.19 1015.52 1015.93 1016.44 1016.97 1017.48 1017.86 1018.34 1019.26 1020.86 1021.64
1012.26 1012.64 1012.82 1013.03 1013.28 1013.53 1013.60 1013.72 1013.74 1013.75 1013.80 1013.71 1013.57 1013.38 1013.33 1013.24 1013.33 1013.07 1012.94 1012.93 1012.86 1013.04 1013.34 1013.62 1013.73 1013.85 1014.24 1014.42 1014.53 1014.58 1014.70 1014.90 1015.10 1015.42 1015.93 1016.80 1017.53 1017.96 1018.34 1018.57 1018.71 1019.42 1021.13
1012.42 1012.78 1013.08 1013.36 1013.69 1013.92 1014.13 1014.26 1014.36 1014.27 1014.22 1014.14 1014.02 1014.06 1013.90 1013.78 1013.77 1013.69 1013.82 1013.65 1013.58 1013.56 1013.80 1013.99 1014.40 1014.73 1014.71 1014.86 1015.08 1015.23 1015.40 1015.54 1015.95 1016.24 1016.80 1017.44 1018.09 1018.62 1018.96 1019.22 1019.39 1019.58 1020.28
1012.48 1012.93 1013.29 1013.69 1014.14 1014.42 1014.60 1014.78 1014.84 1014.72 1014.64 1014.54 1014.46 1014.62 1014.45 1014.32 1014.36 1014.51 1014.51 1014.42 1014.32 1014.37 1014.53 1014.64 1014.99 1015.30 1015.40 1015.46 1015.59 1015.76 1016.01 1016.35 1016.72 1017.07 1017.56 1018.26 1018.68 1019.03 1019.40 1019.61 1019.87 1019.99 1020.54
1012.61 1013.18 1013.59 1013.99 1014.48 1014.90 1015.05 1015.17 1015.21 1015.14 1015.21 1015.06 1015.10 1015.23 1015.13 1015.14 1015.25 1015.36 1015.34 1015.17 1015.13 1015.25 1015.43 1015.60 1015.91 1016.12 1016.06 1016.17 1016.21 1016.39 1016.82 1017.22 1017.60 1017.97 1018.17 1018.56 1019.22 1019.82 1020.04 1020.22 1020.32 1020.72 1020.61
1012.75 1013.33 1013.80 1014.25 1014.78 1015.20 1015.43 1015.57 1015.56 1015.65 1015.69 1015.65 1015.79 1015.98 1016.09 1016.10 1016.28 1016.35 1016.22 1016.12 1016.12 1016.17 1016.22 1016.22 1016.47 1016.66 1016.71 1016.66 1016.87 1017.20 1017.52 1018.00 1018.35 1018.66 1018.78 1019.27 1019.62 1020.10 1020.64 1021.06 1021.24 1021.37 1021.60
1012.78 1013.35 1014.03 1014.52 1015.15 1015.51 1015.70 1015.92 1015.95 1015.95 1016.00 1016.18 1016.51 1016.81 1016.98 1016.93 1017.17 1017.21 1017.15 1017.07 1017.03 1017.11 1016.97 1017.09 1017.17 1017.39 1017.44 1017.60 1017.64 1017.93 1018.43 1018.88 1019.35 1019.70 1019.98 1020.12 1020.31 1020.64 1020.97 1021.28 1021.75 1021.77 1021.48
1012.99 1013.54 1014.19 1014.79 1015.31 1015.70 1015.93 1016.19 1016.27 1016.33 1016.34 1016.67 1017.11 1017.45 1017.39 1017.50 1017.68 1017.87 1017.94 1017.98 1017.98 1017.89 1017.90 1017.65 1017.75 1018.12 1018.20 1018.51 1018.89 1018.86 1019.29 1019.67 1020.10 1020.54 1020.85 1020.92 1020.85 1021.07 1021.26 1021.27 1021.73 1021.99 1021.60
1013.06 1013.70 1014.44 1014.86 1015.37 1015.78 1016.09 1016.32 1016.45 1016.69 1016.87 1017.15 1017.48 1017.66 1017.93 1018.19 1018.33 1018.31 1018.42 1018.70 1018.83 1018.86 1018.76 1018.58 1018.64 1018.79 1019.07 1019.06 1019.40 1019.71 1020.03 1020.62 1021.00 1021.41 1021.63 1021.75 1021.83 1021.76 1020.99 1021.98 1022.21 1021.93 1021.60
1013.14 1013.83 1014.48 1015.07 1015.47 1015.80 1015.95 1016.54 1016.78 1017.02 1017.23 1017.54 1017.89 1018.35 1018.46 1018.75 1018.90 1018.86 1019.55 1019.78 1019.91 1019.74 1019.64 1019.62 1019.83 1019.89 1020.06 1020.09 1020.27 1020.48 1020.84 1021.26 1021.60 1021.78 1021.95 1022.18 1022.21 1022.08 1022.03 1022.28 1021.88 1021.71 1021.83
1013.37 1013.92 1014.62 1015.27 1015.73 1016.07 1016.37 1016.77 1017.17 1017.41 1017.65 1018.16 1018.43 1018.62 1019.09 1019.48 1019.68 1020.02 1020.41 1020.48 1020.41 1020.43 1020.36 1020.58 1020.81 1020.73 1020.78 1020.85 1020.99 1021.22 1021.54 1021.87 1022.04 1022.13 1022.24 1022.31 1022.09 1022.19 1022.22 1021.89 1021.77 1021.93 1021.83
1013.73 1014.29 1014.88 1015.53 1015.96 1016.26 1016.65 1017.02 1017.47 1017.76 1018.35 1018.72 1019.12 1019.32 1019.77 1020.08 1020.37 1020.75 1020.92 1020.88 1020.82 1020.99 1020.99 1021.16 1021.38 1021.42 1021.56 1021.55 1021.60 1021.74 1022.03 1022.29 1022.38 1022.29 1022.06 1021.96 1021.88 1021.81 1021.66 1021.95 1022.03 1022.06 1022.01
1014.13 1014.72 1015.39 1015.80 1016.17 1016.82 1017.17 1017.36 1017.79 1018.47 1018.82 1019.39 1019.57 1019.84 1020.16 1020.56 1020.89 1021.11 1021.17 1021.15 1021.26 1021.35 1021.39 1021.49 1021.70 1021.93 1021.89 1021.73 1021.68 1021.78 1022.18 1022.29 1022.23 1022.14 1022.15 1022.03 1022.08 1022.03 1022.03 1022.15 1022.34 1022.36 1022.25
1014.63 1015.19 1015.71 1016.13 1016.76 1017.18 1017.42 1017.88 1018.48 1019.12 1019.34 1019.67 1019.99 1020.37 1020.69 1020.96 1021.14 1021.36 1021.32 1021.42 1021.59 1021.65 1021.81 1021.89 1022.06 1022.09 1021.98 1021.93 1021.91 1021.90 1022.18 1022.42 1022.51 1022.55 1022.53 1022.44 1022.33 1022.34 1022.30 1022.25 1022.35 1022.24 1022.04
1015.10 1015.71 1016.17 1016.56 1016.91 1017.32 1017.74 1018.42 1018.97 1019.21 1019.57 1020.00 1020.39 1020.72 1020.94 1021.11 1021.32 1021.38 1021.48 1021.59 1021.71 1021.94 1022.12 1022.32 1022.51 1022.31 1022.24 1022.18 1022.30 1022.37 1022.39 1022.45 1022.58 1022.67 1022.65 1022.65 1022.51 1022.45 1022.37 1022.32 1022.08 1021.96 1021.97
1015.31 1015.91 1016.34 1016.80 1017.21 1017.69 1018.18 1018.58 1018.94 1019.30 1019.80 1020.16 1020.48 1020.58 1020.84 1021.07 1021.19 1021.30 1021.52 1021.64 1021.66 1021.91 1022.14 1022.41 1022.62 1022.62 1022.52 1022.51 1022.44 1022.48 1022.48 1022.46 1022.56 1022.62 1022.57 1022.52 1022.38 1022.29 1022.22 1021.98 1021.95 1022.00 1022.17
1015.32 1015.87 1016.38 1016.97 1017.52 1017.86 1018.25 1018.55 1018.88 1019.36 1019.72 1020.09 1020.31 1020.43 1020.70 1020.89 1020.98 1021.08 1021.21 1021.51 1021.65 1021.82 1022.11 1022.41 1022.56 1022.63 1022.68 1022.70 1022.71 1022.69 1022.66 1022.65 1022.60 1022.65 1022.54 1022.32 1022.24 1022.27 1022.25 1022.15 1022.12 1022.15 1022.24
1015.04 1015.58 1016.18 1016.83 1017.34 1017.72 1018.08 1018.46 1018.85 1019.13 1019.41 1019.78 1020.04 1020.31 1020.69 1021.04 1021.37 1021.59 1021.52 1021.72 1021.89 1021.85 1022.11 1022.36 1022.45 1022.60 1022.73 1022.71 1022.64 1022.73 1022.77 1022.75 1022.68 1022.60 1022.61 1022.54 1022.51 1022.60 1022.46 1022.36 1022.25 1022.24 1022.24
1014.84 1015.48 1015.91 1016.49 1017.08 1017.51 1017.91 1018.24 1018.50 1018.66 1019.03 1019.60 1019.96 1020.35 1020.71 1021.05 1021.36 1021.59 1021.88 1021.97 1022.09 1022.07 1022.15 1022.27 1022.33 1022.46 1022.48 1022.50 1022.69 1022.75 1022.76 1022.73 1022.64 1022.86 1022.92 1022.90 1022.91 1022.93 1022.89 1022.76 1022.61 1022.48 1022.38
Thickness
5681 5686 5690 5694 5696 5700 5701 5700 5700 5701 5699 5696 5691 5688 5688 5688 5689 5693 5691 5692 5688 5685 5680 5676 5672 5671 5668 5664 5660 5655 5651 5646 5643 5636 5632 5632 5633 5632 5633 5631 5631 5629 5626
5668 5676 5682 5688 5687 5689 5692 5693 5694 5695 5696 5696 5694 5690 5686 5686 5684 5683 5685 5684 5682 5680 5677 5673 5669 5665 5661 5659 5656 5651 5645 5640 5636 5627 5620 5616 5620 5624 5624 5623 5622 5621 5619
5654 5661 5668 5672 5675 5677 5679 5683 5686 5689 5691 5693 5690 5689 5686 5682 5679 5679 5679 5678 5674 5673 5671 5670 5666 5661 5658 5653 5650 5648 5643 5636 5630 5628 5618 5611 5615 5615 5618 5616 5614 5612 5612
5647 5650 5655 5657 5659 5661 5667 5671 5675 5678 5682 5685 5684 5679 5681 5679 5679 5677 5675 5672 5669 5665 5661 5659 5658 5656 5653 5651 5644 5643 5638 5630 5624 5617 5621 5616 5614 5609 5604 5607 5607 5606 5602
5635 5638 5641 5644 5646 5651 5656 5662 5666 5669 5672 5675 5675 5673 5671 5674 5679 5676 5671 5668 5664 5662 5660 5654 5649 5647 5645 5643 5641 5635 5632 5629 5621 5619 5612 5609 5603 5601 5597 5590 5595 5595 5596
5627 5630 5635 5638 5640 5645 5648 5653 5657 5660 5663 5664 5665 5664 5663 5663 5663 5666 5665 5662 5660 5660 5656 5649 5643 5636 5633 5632 5630 5628 5623 5617 5617 5613 5608 5606 5599 5594 5587 5583 5580 5579 5577
5621 5623 5627 5630 5632 5634 5638 5642 5645 5647 5652 5654 5656 5656 5655 5654 5654 5655 5655 5654 5651 5651 5648 5644 5641 5633 5628 5622 5619 5617 5614 5609 5605 5603 5598 5593 5589 5586 5583 5577 5568 5563 5555
5613 5615 5619 5621 5623 5626 5628 5630 5633 5635 5638 5640 5642 5644 5646 5645 5645 5646 5646 5644 5643 5642 5643 5639 5634 5627 5620 5615 5611 5606 5601 5597 5592 5588 5583 5580 5576 5571 5569 5565 5555 5542 5534
5605 5607 5610 5612 5614 5615 5617 5620 5622 5623 5624 5626 5627 5630 5631 5632 5631 5633 5634 5633 5633 5631 5627 5622 5617 5613 5605 5600 5595 5590 5586 5580 5576 5572 5566 5558 5553 5550 5547 5546 5547 5545 5532
5598 5599 5601 5602 5603 5603 5604 5605 5607 5610 5612 5613 5615 5616 5618 5620 5620 5620 5619 5620 5619 5618 5613 5608 5602 5594 5589 5582 5574 5568 5562 5557 5550 5546 5541 5536 5532 5528 5527 5525 5525 5527 5524
5590 5591 5592 5591 5590 5590 5591 5592 5595 5598 5600 5603 5604 5603 5606 5608 5608 5606 5606 5605 5606 5603 5599 5593 5585 5577 5570 5563 5556 5549 5542 5533 5527 5522 5517 5511 5509 5508 5507 5508 5507 5507 5504
5582 5582 5582 5582 5579 5579 5580 5581 5584 5586 5588 5590 5591 5591 5593 5593 5593 5591 5591 5592 5591 5586 5579 5574 5566 5561 5556 5548 5542 5533 5523 5513 5504 5497 5495 5492 5488 5486 5487 5488 5490 5487 5489
5574 5573 5573 5572 5570 5569 5570 5571 5573 5574 5575 5577 5577 5577 5577 5577 5576 5575 5576 5576 5573 5568 5563 5559 5554 5549 5543 5537 5528 5520 5509 5496 5485 5477 5475 5471 5471 5470 5469 5469 5469 5470 5469
5568 5567 5564 5563 5559 5560 5561 5561 5562 5564 5566 5565 5563 5561 5561 5562 5561 5561 5561 5560 5557 5553 5551 5546 5541 5536 5529 5523 5515 5507 5496 5483 5469 5461 5454 5452 5453 5454 5453 5455 5454 5455 5458
5561 5561 5558 5554 5552 5552 5553 5552 5553 5554 5555 5553 5550 5548 5550 5550 5549 5548 5547 5545 5543 5540 5538 5536 5530 5523 5517 5508 5499 5493 5483 5473 5462 5450 5440 5439 5442 5441 5441 5444 5443 5443 5447
5557 5553 5549 5549 5547 5545 5545 5545 5545 5544 5544 5543 5540 5540 5539 5537 5537 5539 5537 5533 5530 5527 5524 5522 5518 5511 5503 5497 5489 5481 5473 5462 5453 5445 5437 5431 5431 5431 5438 5434 5433 5435 5437
5552 5548 5543 5541 5540 5539 5540 5536 5535 5535 5534 5533 5531 5527 5527 5526 5526 5526 5521 5517 5514 5513 5511 5507 5501 5496 5489 5483 5477 5470 5462 5454 5446 5440 5435 5430 5428 5428 5429 5427 5428 5429 5427
5546 5543 5538 5532 5532 5530 5530 5528 5527 5526 5525 5521 5520 5519 5516 5514 5513 5511 5508 5505 5504 5501 5499 5493 5487 5483 5478 5473 5467 5460 5452 5445 5440 5434 5430 5426 5426 5423 5422 5424 5423 5421 5420
5535 5533 5528 5524 5523 5524 5522 5520 5518 5517 5513 5511 5508 5507 5504 5503 5501 5499 5497 5496 5495 5492 5488 5484 5477 5473 5467 5462 5457 5450 5444 5438 5435 5432 5430 5427 5425 5423 5422 5419 5417 5414 5411
5525 5520 5517 5517 5517 5512 5512 5513 5511 5506 5504 5500 5499 5497 5496 5493 5491 5490 5489 5488 5486 5483 5480 5475 5469 5464 5458 5455 5451 5446 5439 5435 5432 5431 5427 5424 5421 5418 5416 5411 5407 5403 5401
5515 5512 5510 5510 5505 5504 5505 5503 5498 5493 5493 5493 5492 5489 5487 5486 5485 5483 5482 5480 5476 5473 5469 5467 5461 5456 5453 5447 5443 5439 5434 5430 5427 5424 5421 5417 5414 5411 5407 5404 5398 5396 5394
5507 5504 5502 5500 5500 5499 5497 5492 5488 5488 5488 5486 5484 5482 5481 5480 5478 5476 5474 5473 5470 5467 5463 5458 5451 5449 5445 5441 5437 5433 5430 5426 5421 5417 5413 5409 5406 5402 5399 5394 5392 5389 5385
5502 5499 5498 5496 5494 5491 5489 5487 5485 5485 5482 5480 5478 5478 5476 5474 5473 5472 5470 5468 5466 5462 5456 5451 5445 5441 5438 5434 5431 5427 5423 5420 5415 5411 5407 5403 5399 5395 5391 5388 5384 5379 5373
5497 5496 5493 5490 5487 5486 5485 5483 5482 5480 5478 5476 5476 5474 5472 5471 5470 5469 5467 5464 5461 5456 5451 5446 5440 5436 5432 5428 5423 5420 5416 5413 5409 5404 5400 5397 5393 5388 5383 5378 5373 5368 5362
5496 5494 5491 5488 5485 5483 5481 5480 5478 5477 5476 5473 5471 5470 5468 5465 5462 5459 5459 5455 5452 5451 5444 5439 5436 5431 5426 5423 5420 5415 5411 5406 5402 5398 5392 5387 5382 5376 5372 5367 5363 5358 5353
5492 5489 5489 5485 5482 5480 5478 5476 5475 5475 5473 5469 5466 5464 5462 5460 5457 5453 5450 5450 5446 5444 5440 5436 5432 5428 5424 5419 5414 5409 5404 5400 5395 5388 5383 5377 5370 5365 5361 5356 5351 5346 5342